SLRH weather

Rancho Alegre Airport
Yacuma, El Beni Department, Bolivia

Public forecast

Using degrees Celsius for public forecast. Weather courtesy of forecast.io.

METAR (pilot weather report)

Report is more than 2 hours old.

Closest report is Capitán Av. Selin Zeitun Lopez Airport, 71.2 nm (131.9 km) N. Retrieved 2019/04/20 23:00 UTC (5 hours ago):

SLRI 202300Z 00000KT 9999 FEW017 FEW020CB BKN200 29/24 Q1009

TAF (pilot weather forecast)

Forecast is more than 12 hours old.

Closest forecast is Capitán Av. Selin Zeitun Lopez Airport, 71.2 nm (131.9 km) N. Retrieved 2015/11/18 00:21 UTC (3 years ago):

TAF SLRI 182200Z 1900/1924 00000KT 9999 FEW015 TX37/1919Z TN23/1910Z BECMG 1912/1914 33011KT SCT020 TEMPO 1919/1922 8000 VCSH FEW020 FEW023CB BKN080